Regional Weather Roundup
Issued by NWS Newport/Morehead, NC

Home | Current Version | Previous Version | Text Only | Print | Product List | Glossary On
Versions: 1 2 3 4 5 6 7 8 9 10 11 12 13 14 15 16 17 18 19 20 21 22 23 24 25 26 27 28 29 30 31 32 33 34 35 36
000
ASUS42 KMHX 250610
RWRMHX
WEATHER ROUNDUP FOR EASTERN NORTH CAROLINA
NATIONAL WEATHER SERVICE NEWPORT/MOREHEAD CITY NC
200 AM EDT FRI APR 25 2014

NOTE: "FAIR" INDICATES FEW OR NO CLOUDS BELOW 12,000 FEET
WITH NO SIGNIFICANT WEATHER AND/OR OBSTRUCTIONS TO VISIBILITY

NCZ015>017-031-032-045>047-102-103-250700-
NORTH COAST

CITY           SKY/WX    TMP DP  RH WIND       PRES   REMARKS
EDENTON        FAIR      54  49  81 S3        30.02F
ELIZABETH CITY FAIR      52  47  83 SE5       30.03F
KITTY HAWK     FAIR      49  42  76 SE3       30.02F
MANTEO         FAIR      48  45  87 CALM      30.04F

$$

NCZ045>047-081-094-103-104-250700-
CENTRAL COAST

CITY           SKY/WX    TMP DP  RH WIND       PRES   REMARKS
FRISCO         FAIR      49  44  83 CALM      30.04F
SWANQUARTER      N/A     52 N/A N/A E2        30.00F

$$

NCZ095-097-098-100-101-250700-
SOUTHERN COAST

CITY           SKY/WX    TMP DP  RH WIND       PRES   REMARKS
BEAUFORT       FAIR      52  49  89 E5        30.02F
CEDAR ISLAND     N/A     57 N/A N/A SE2       30.06F
JACKSONVILLE   FAIR      53  53 100 CALM      30.00F
NEWPORT          N/A     50  48  93 CALM        N/A
PINEY ISLAND   FAIR      59  53  80 S3        30.02F
WILMINGTON     FAIR      57  53  86 CALM      29.99F


$$

NCZ011>013-027>030-043-044-078>080-089-090>093-098-250700-
COASTAL PLAIN

CITY           SKY/WX    TMP DP  RH WIND       PRES   REMARKS
AHOSKIE        FAIR      45  40  81 CALM      30.01F
CLINTON        FAIR      53  48  83 CALM      30.00F
ELIZABETHTOWN  FAIR      54  49  83 CALM      29.99F
GOLDSBORO      FAIR      49  47  92 E6        29.99F
GREENVILLE     FAIR      50  45  81 CALM      30.03F
HAVELOCK       FAIR      50  45  83 SE3       30.03F
KENANSVILLE    MOCLDY    49  47  92 CALM      30.01F
KINSTON        FAIR      51  46  83 CALM      30.02F
NEW BERN       FAIR      50  46  86 CALM      30.03F
RICHLANDS      FAIR      50  50 100 CALM      30.01F
ROANOKE RAPIDS NOT AVBL
ROCKY MOUNT    FAIR      48  43  82 CALM      30.00F
WASHINGTON     FAIR      53  48  83 CALM      30.02F
WHITEVILLE     FAIR      58  54  85 E3        29.98F

$$

AMZ130-135-150-152-154-156-158-170-250-252-270-ANZ085-086-088-633-658-670-250700-
MARINE OBSERVATIONS

STATION/POSITION TIME  TEMP    WIND        PRES    WAVE   SWELL
                       AIR SEA DIR/SP/G            HT/PER HT/PER
                 (UTC) (F)     (DEG/KT/KT) (MB)    (FT/S) (FT/S)
CHESAPEAKE LIGHT 0500   53     200/ 14/ 14 1018.1
BUOY 44014       0600   50 49  230/  8/  8 1017.3    2/ 6   2/ 6
DUCK             0600   53 52  150/  7/  9 1016.2
2E DUCK          0600      53                N/A     2/ 7
OREGON INLET     0600   52 56  120/  4/  5 1017.3
BUOY 44095       0600      50                N/A     3/ 7   2/11
HATTERAS CG      0600   59 63  140/  2/  3 1017.5
DIAMOND BUOY     NOT AVBL
CAPE LOOKOUT     0500   62     100/  5/  5 1017.3
BEAUFORT LAB     0600   59 63  100/  2/  3 1016.1
30 SE NEW RIVER  0500   68 69  130/  8/ 10 1017.1
5 SE WRIGHTSVILL NOT AVBL
FRYING PAN BUOY  0600   70 68  160/ 10/ 12 1015.1    4/ 8   3/ 8
BUOY 41001       NOT AVBL
BUOY 41002       NOT AVBL
BUOY 41004       0600   73 71  140/  6/  6 1014.1    3/ 5   3/ 5

$$



USA.gov is the U.S. government's official web portal to all federal, state and local government web resources and services.